Simultaneous Nadir Overpasses (SNOs) Predictions

Prediction of SNOs between NOAA-19 and NPP Satellite Orbit:

Table of predicted SNOs for the next 14.0 days since TLE Epoch: 1/16/2015
Index Date (NOAA-19) Time (NOAA-19) Lat,Lon (NOAA-19) SZA (NOAA-19 ) Date (NPP) Time (NPP) Lat,Lon (NPP) SZA (NPP ) Distance(km) Time Diff (sec)
1 01/21/2015 08:24:10 80.96, 3.88 104.31 01/21/2015 08:25:10 80.96, 4.01 104.26 2.38 60
2 01/21/2015 09:15:07 -80.95, 171.37 75.74 01/21/2015 09:15:54 -80.95, 171.52 75.78 2.63 47
3 01/21/2015 10:06:12 80.95, -21.25 104.24 01/21/2015 10:06:39 80.94, -21.09 104.20 2.87 27
4 01/21/2015 10:57:09 -80.94, 146.23 75.81 01/21/2015 10:57:23 -80.93, 146.41 75.84 3.24 14
5 01/21/2015 11:48:13 80.93, -46.02 104.12 01/21/2015 11:48:08 80.93, -46.20 104.15 3.19 5
6 01/21/2015 12:39:11 -80.93, 121.10 75.87 01/21/2015 12:38:53 -80.94, 120.95 75.84 2.74 18
7 01/21/2015 13:30:15 80.92, -71.15 104.05 01/21/2015 13:29:37 80.92, -71.30 104.09 2.69 38
8 01/21/2015 14:21:13 -80.92, 95.96 75.94 01/21/2015 14:20:22 -80.93, 95.85 75.90 2.12 51




NCC Satellite Simultaneous Nadir Overpasses (SNOs) Prediction Service
